Regional Weather Roundup
Issued by NWS

Home | Current Version | Previous Version | Graphics & Text | Print | Product List | Glossary On
Versions: 1 2 3 4 5 6 7 8 9 10 11 12 13 14 15 16 17 18 19 20 21 22 23 24 25 26 27 28 29 30 31 32 33 34 35 36 37 38 39 40 41 42 43 44 45 46 47 48 49 50
000
ASUS45 KABQ 261701
RWRNM
WEATHER ROUNDUP FOR NEW MEXICO
NATIONAL WEATHER SERVICE ALBUQUERQUE NM
1000 AM MST WED NOV 26 2014

NOTE: "FAIR" MEANS FEW OR NO CLOUDS BELOW 12,000 FEET AGL WITH NO
       SIGNIFICANT WEATHER OR OBSTRUCTIONS TO VISION.

      THIS PRODUCT IS RELEASED AS TWO VERSIONS.  ONE VERSION NEAR
      THE TOP OF THE HOUR CONTAINING PRELIMINARY DATA FROM ALBUQUERQUE
      AND OTHER STATIONS.  A FINAL VERSION WITH ADDITIONAL DATA IS
      ISSUED ABOUT 10 MINUTES AFTER THE HOUR.

NMZ501-503-504-510>518-261800-
NORTHWEST PLATEAU/NORTHCENTRAL MOUNTAINS

CITY           SKY/WX    TMP DP  RH WIND       PRES   REMARKS
FARMINGTON     SUNNY     41  11  29 W8        30.39R
SANTA FE       SUNNY     45  20  36 VRB5      30.36R
TAOS           SUNNY     32  18  55 CALM      30.36S

$$
NMZ402-403-502-505>509-261800-
WESTCENTRAL MOUNTAINS/SOUTHWEST MOUNTAINS

CITY           SKY/WX    TMP DP  RH WIND       PRES   REMARKS
GALLUP         SUNNY     41   6  23 W3        30.45R
SILVER CITY    SUNNY     52  18  25 SE5       30.41R

$$
NMZ407-409-411-412-261800-
SOUTHERN DESERTS

CITY           SKY/WX    TMP DP  RH WIND       PRES   REMARKS
DEMING         SUNNY     47  10  22 CALM      30.39R
HOLLOMAN AFB   MOSUNNY   45  12  26 S3        30.36S
ALAMOGORDO     MOSUNNY   43   9  24 S3        30.37S
T OR C         SUNNY     47  14  26 CALM      30.38R

$$
NMZ519>523-261800-
CENTRAL VALLEYS/CENTRAL HIGHLANDS

CITY           SKY/WX    TMP DP  RH WIND       PRES   REMARKS
ALBUQUERQUE    MOSUNNY   47  12  24 SW6       30.40R
DOUBLE EAGLE   MOSUNNY   45  12  26 CALM      30.40R
CLINES CORNERS SUNNY     44  18  35 W21       30.33R
BELEN          FAIR      47  11  23 NE6       30.40S
SOCORRO        NOT AVBL

$$
NMZ524>526-539-540-261800-
SOUTHCENTRAL MOUNTAINS

CITY           SKY/WX    TMP DP  RH WIND       PRES   REMARKS
RUIDOSO        SUNNY     48  19  32 NW10G17   30.38R

$$
NMZ527>531-261800-
NORTHEAST HIGHLANDS/NORTHEAST PLAINS

CITY           SKY/WX    TMP DP  RH WIND       PRES   REMARKS
LAS VEGAS      MOSUNNY   48  21  34 SW5       30.29R
RATON          SUNNY     43  23  45 VRB3      30.22S
CLAYTON        MOSUNNY   39  24  55 N10       30.26R WCI  32

$$
NMZ532>537-261800-
EASTCENTRAL PLAINS

CITY           SKY/WX    TMP DP  RH WIND       PRES   REMARKS
TUCUMCARI      PTSUNNY   41  27  57 E7        30.31R
CANNON AFB     SUNNY     43  28  55 E7        30.31R
CLOVIS AIRPORT SUNNY     43  27  52 NE14      30.30S

$$
NMZ028-029-538-261800-
SOUTHEAST PLAINS

CITY           SKY/WX    TMP DP  RH WIND       PRES   REMARKS
ROSWELL        SUNNY     54  18  24 SE6       30.29R
CARLSBAD       SUNNY     56  16  20 E7        30.28R
HOBBS          SUNNY     55  19  24 N18G24    30.29R


$$



USA.gov is the U.S. government's official web portal to all federal, state and local government web resources and services.